Погода в Шологонцах

Россия / Республика Саха (Якутия)     66°14′55″N   114°17′20″E
темп.,
°C
ветер,
м/с
пор.,
м/с
влажн.,
%
обл.,
%
осадки,
мм/ч
давл.,
гПа
погр.,
м
1 марта, пн
пн100:00−38з119151 0.0 102919
03:00−39з129258 0.0 102919
06:00−40з229432 0.0 102918
09:00−40з229363 0.0 102918
12:00−35з3589100 0.0 1028256
15:00−33зсз358799 0.0 1027336
18:00−36з339296 0.0 102721
21:00−40з229581 0.0 102818
2 марта, вт
вт200:00−41з129795 0.0 102818
03:00−42з119981 0.0 102818
06:00−42з119922 0.0 102818
09:00−43з119928 0.0 102818
12:00−36зсз128938 0.0 1027184
15:00−34сз128554 0.0 1026298
18:00−37зсз119383 0.0 102719
21:00−40зсз119966 0.0 102818
3 марта, ср
ср300:00−41зсз119951 0.0 102918
03:00−42зсз119965 0.0 102818
06:00−42сз1110054 0.0 102818
09:00−42зсз119944 0.0 102918
12:00−36сз119041 0.0 1028173
15:00−33сз228656 0.0 1027283
18:00−35зсз119260 0.0 102819
21:00−38зсз229543 0.0 102919
4 марта, чт
чт400:00−39зсз22950 0.0 102918
03:00−39зсз22940 0.0 102918
06:00−39зсз22930 0.0 102918
09:00−39зсз22910 0.0 102918
12:00−32зсз37870 0.0 1029287
15:00−29зсз68909 0.0 1028367
18:00−31зсз489216 0.0 1030140
21:00−35зсз22928 0.0 103219
5 марта, пт
пт500:00−36з22930 0.0 103219
03:00−37зсз11920 0.0 103319
06:00−38з11910 0.0 103319
09:00−37зюз11880 0.0 103319
12:00−30вюв00780 0.0 1031142
15:00−26ю22790 0.0 1030301
18:00−29юв22900 0.0 102919
21:00−33ююв22960 0.0 103019